Location: Taaricht
(32.5378°N, 5.4251°W)
Time: 16:33:05
(UTC+00:00)

BREEZE M DEB (TANK) - Pass Details

Date: 09 April 2020
Orbit: 304 x 11878 km, 49.5° (Epoch: 22 May)

Event Time Altitude Azimuth Distance (km) Brightness Sun altitude
Rises 19:14:44 0° 217° (SW) 2,003 5.5 -6.4°
Reaches altitude 10° 19:16:22 10° 210° (SSW) 1,186 4.3 -6.8°
Maximum altitude 19:18:30 48° 132° (SE) 488 1.7 -7.2°
Drops below altitude 10° 19:22:03 10° 56° (NE) 1,965 4.8 -7.9°
Sets 19:25:37 0° 52° (NE) 3,728 6.2 -8.6°
